EW6519 Weather Reports


Display with metric or nautical units.
time (UTC)temp
F
wind
direction
speed
MPH
gust
MPH
rain 1hr
in
rain 24hr
in
rain mn
in
humidity
%
barometer
mb
20260901094523 75 176 0.0 0.0 0.00 0.00 0.00 86 1015.5
20260901093018 75 209 0.0 0.0 0.00 0.00 0.00 85 1015.3
20260901091515 76 209 0.0 0.0 0.00 0.00 0.00 83 1015.3
20260901090014 77 209 0.0 0.0 0.00 0.00 0.00 82 1015.2
20260901084511 77 230 0.0 0.0 0.00 0.00 0.00 80 1015.1
20260901083010 77 239 0.0 1.0 0.00 0.00 0.00 80 1015.0
20260901081508 77 246 0.0 0.0 0.00 0.00 0.00 79 1015.0
20260901080013 78 246 0.0 0.0 0.00 0.00 0.00 78 1014.7
20260901074507 78 231 0.0 0.0 0.00 0.00 0.00 77 1014.7
20260901073016 79 231 0.0 0.0 0.00 0.00 0.00 76 1014.6
20260901071508 79 231 0.0 7.0 0.00 0.00 0.00 75 1014.4
20260901070004 78 192 0.0 0.0 0.00 0.00 0.00 77 1014.3
20260901064503 78 206 0.0 3.0 0.00 0.00 0.00 79 1014.3
20260901063132 78 243 0.0 0.0 0.00 0.00 0.00 81 1014.5
20260901063000 78 233 0.0 0.0 0.00 0.00 0.00 81 1014.4
20260901061602 78 230 0.0 3.0 0.00 0.00 0.00 82 1014.6
20260901060056 78 152 0.0 0.0 0.00 0.00 0.00 82 1014.8
20260901054555 78 154 0.0 0.0 0.00 0.00 0.00 83 1015.0
20260901053100 78 148 0.0 0.0 0.00 0.00 0.00 83 1015.1
20260901051554 78 150 0.0 0.0 0.00 0.00 0.00 83 1015.3
20260901050050 78 242 0.0 0.0 0.00 0.00 0.00 83 1015.4
20260901044548 78 241 0.0 0.0 0.00 0.00 0.00 82 1015.5
20260901043047 78 179 0.0 0.0 0.00 0.00 0.00 83 1015.5
20260901041544 79 179 0.0 0.0 0.00 0.00 0.00 82 1015.5
20260901040043 79 207 0.0 0.0 0.00 0.00 0.00 82 1015.6
20260901034548 79 207 0.0 0.0 0.00 0.00 0.00 81 1015.5
20260901033044 80 238 0.0 0.0 0.00 0.00 0.00 79 1015.7
20260901031547 80 238 0.0 0.0 0.00 0.00 0.00 78 1015.7
20260901030040 81 238 0.0 0.0 0.00 0.00 0.00 79 1015.7
20260901024539 81 238 0.0 0.0 0.00 0.00 0.00 76 1015.7
20260901023040 81 238 0.0 0.0 0.00 0.00 0.00 76 1015.7
20260901021548 82 238 0.0 0.0 0.00 0.00 0.00 75 1015.7
20260901020037 82 238 0.0 0.0 0.00 0.00 0.00 73 1015.6
20260901014538 82 238 0.0 0.0 0.00 0.00 0.00 73 1015.5
20260901013055 83 238 0.0 0.0 0.00 0.00 0.00 72 1015.4
20260901011537 84 238 0.0 0.0 0.00 0.00 0.00 71 1015.3
20260901010047 85 238 0.0 0.0 0.00 0.00 0.00 70 1015.0
20260901004538 85 238 0.0 0.0 0.00 0.00 0.00 68 1014.7
20260901003035 86 242 0.0 0.0 0.00 0.00 0.00 66 1014.5
20260901001536 86 247 0.0 0.0 0.00 0.00 0.00 65 1014.4
20260901000034 87 245 0.0 0.0 0.00 0.00 0.00 63 1014.3
20260831234534 88 170 0.0 0.0 0.00 0.00 0.00 62 1014.1
20260831233031 88 207 0.0 2.0 0.00 0.00 0.00 61 1014.1
20260831231532 89 235 3.0 10.0 0.00 0.00 0.00 60 1014.1
20260831230033 90 174 1.0 9.0 0.00 0.00 0.00 59 1014.1
20260831224530 90 233 1.0 9.0 0.00 0.00 0.00 58 1014.3
20260831223129 91 234 0.0 7.0 0.00 0.00 0.00 56 1014.5
20260831221525 92 245 0.0 6.0 0.00 0.00 0.00 55 1014.7
20260831220023 92 186 0.0 1.0 0.00 0.00 0.00 54 1014.8
20260831214522 93 268 0.0 0.0 0.00 0.00 0.00 55 1014.9
20260831213031 92 130 0.0 0.0 0.00 0.00 0.00 56 1015.0
20260831211521 92 248 1.0 3.0 0.00 0.00 0.00 54 1015.1
20260831210018 93 247 1.0 7.0 0.00 0.00 0.00 53 1015.1
20260831204518 93 292 0.0 1.0 0.00 0.00 0.00 53 1015.3
20260831203015 96 194 0.0 4.0 0.00 0.00 0.00 49 1015.4
20260831201513 95 225 0.0 9.0 0.00 0.00 0.00 48 1015.6
20260831200018 96 324 0.0 7.0 0.00 0.00 0.00 49 1015.7
20260831194508 94 205 0.0 0.0 0.00 0.00 0.00 51 1016.0
20260831193010 94 255 0.0 4.0 0.00 0.00 0.00 53 1016.1
20260831191506 94 212 1.0 5.0 0.00 0.00 0.00 51 1016.3
20260831190005 93 282 1.0 5.0 0.00 0.00 0.00 51 1016.4
20260831184505 92 167 0.0 0.0 0.00 0.00 0.00 56 1016.7
20260831183002 93 221 1.0 9.0 0.00 0.00 0.00 54 1016.7
20260831181501 92 53 0.0 0.0 0.00 0.00 0.00 57 1016.7
20260831180059 92 244 0.0 0.0 0.00 0.00 0.00 56 1016.9
20260831174559 92 262 0.0 7.0 0.00 0.00 0.00 58 1017.0
20260831173058 92 235 1.0 10.0 0.00 0.00 0.00 57 1017.1
20260831171600 91 278 0.0 6.0 0.00 0.00 0.00 59 1017.0
20260831170056 91 230 0.0 7.0 0.00 0.00 0.00 59 1017.2
20260831164556 92 288 0.0 5.0 0.00 0.00 0.00 59 1017.2
20260831163053 91 59 0.0 12.0 0.00 0.00 0.00 61 1017.3
20260831161552 90 290 0.0 5.0 0.00 0.00 0.00 63 1017.4
20260831160047 89 119 0.0 3.0 0.00 0.00 0.00 64 1017.4
20260831155339 90 43 0.0 4.0 0.00 0.00 0.00 65 1019.3
20260831154507 87 245 1.0 10.0 0.00 0.00 0.00 66 1017.4
20260831153006 89 250 1.0 7.0 0.00 0.00 0.00 63 1017.4
20260831151605 88 316 1.0 6.0 0.00 0.00 0.00 65 1017.4
20260831150057 86 198 0.0 7.0 0.00 0.00 0.00 69 1017.3
20260831144631 85 128 0.0 0.0 0.00 0.00 0.00 69 1017.3
20260831143050 83 162 0.0 5.0 0.00 0.00 0.00 71 1017.3
20260831141546 83 206 0.0 3.0 0.00 0.00 0.00 72 1017.2
20260831140044 82 219 0.0 9.0 0.00 0.00 0.00 73 1017.3
20260831134545 81 197 0.0 4.0 0.00 0.00 0.00 74 1017.2
20260831133039 80 217 0.0 0.0 0.00 0.00 0.00 78 1017.2
20260831131534 79 248 0.0 0.0 0.00 0.00 0.00 80 1017.1
20260831130032 78 152 0.0 0.0 0.00 0.00 0.00 81 1017.1
20260831124536 78 153 0.0 0.0 0.00 0.00 0.00 82 1017.0
20260831123033 76 163 0.0 0.0 0.00 0.00 0.00 85 1017.0
20260831121540 74 226 0.0 0.0 0.00 0.00 0.00 86 1016.9
20260831120035 74 210 0.0 0.0 0.00 0.00 0.00 87 1016.9
20260831114544 73 210 0.0 0.0 0.00 0.00 0.00 86 1016.8
20260831113024 73 210 0.0 0.0 0.00 0.00 0.00 86 1016.6
20260831111522 73 210 0.0 0.0 0.00 0.00 0.00 85 1016.5
20260831110023 74 210 0.0 0.0 0.00 0.00 0.00 85 1016.4
20260831104531 74 210 0.0 0.0 0.00 0.00 0.00 84 1016.3
20260831103018 74 210 0.0 0.0 0.00 0.00 0.00 84 1016.2
20260831101516 74 210 0.0 0.0 0.00 0.00 0.00 83 1016.1
20260831100014 74 210 0.0 0.0 0.00 0.00 0.00 83 1016.0